Tacoma Narrows, WA
on Saturday, January 12, 2013

Saturday
Previous Day Next Day
Daily Summary
 ActualAverageRecord
Temperature
Mean Temperature °F °F  
Max Temperature 36°F 43°F 50°F (2003)
Min Temperature 27°F 36°F 19°F (2007)
Degree Days
Heating Degree Days 34    
Moisture
Dew Point 24°F   
Average Humidity 73    
Maximum Humidity 85    
Minimum Humidity 55    
Precipitation
Precipitation 0.00 in in in ()
Wind
Wind Speed 1 mph   
Max Wind Speed 6 mph   
Max Gust Speed mph   
Visibility 10 miles   
Events     
Averages and records for this station are not official NWS values.
Key: T is trace of precipitation, MM is missing value
Source: NWS Daily Summary
Seasonal Weather Averages
Time(PST)TemperatureDew PointHumidity Pressure Visibility Wind DirectionWind SpeedGust SpeedPrecipitationEvents Conditions
12:53 AM 28.9°F 24.1°F 82% 30.33 in 10.0 miles Calm Calm - N/A   Clear
1:53 AM 30.0°F 25.0°F 82% 30.33 in 10.0 miles Calm Calm - N/A   Clear
2:53 AM 28.0°F 24.1°F 85% 30.34 in 10.0 miles Calm Calm - N/A   Clear
3:53 AM 30.0°F 24.1°F 79% 30.34 in 10.0 miles ESE 3.5 mph - N/A   Clear
4:53 AM 27.0°F 21.9°F 81% 30.34 in 10.0 miles Calm Calm - N/A   Clear
5:53 AM 27.0°F 21.9°F 81% 30.35 in 10.0 miles Calm Calm - N/A   Clear
6:53 AM 27.0°F 23.0°F 85% 30.35 in 10.0 miles Calm Calm - N/A   Clear
7:53 AM 28.9°F 23.0°F 78% 30.37 in 10.0 miles Calm Calm - N/A   Clear
8:53 AM 30.0°F 25.0°F 82% 30.38 in 10.0 miles Calm Calm - N/A   Clear
9:53 AM 32.0°F 26.1°F 79% 30.39 in 10.0 miles Calm Calm - N/A   Clear
10:53 AM 33.1°F 27.0°F 78% 30.40 in 10.0 miles North 3.5 mph - N/A   Scattered Clouds
11:53 AM 33.1°F 25.0°F 72% 30.39 in 10.0 miles North 3.5 mph - N/A   Mostly Cloudy
12:53 PM 35.1°F 26.1°F 70% 30.38 in 10.0 miles NNW 5.8 mph - N/A   Mostly Cloudy
1:16 PM 35.6°F 26.6°F 70% 30.37 in 10.0 miles Calm Calm - N/A   Scattered Clouds
1:53 PM 35.1°F 26.1°F 70% 30.40 in 10.0 miles NE 5.8 mph - N/A   Mostly Cloudy
2:05 PM 35.6°F 24.8°F 65% 30.38 in 10.0 miles Calm Calm - N/A   Scattered Clouds
2:53 PM 36.0°F 23.0°F 59% 30.40 in 10.0 miles NE 4.6 mph - N/A   Scattered Clouds
3:53 PM 36.0°F 21.0°F 55% 30.41 in 10.0 miles North 5.8 mph - N/A   Partly Cloudy
4:53 PM 34.0°F 23.0°F 64% 30.41 in 10.0 miles North 5.8 mph - N/A   Mostly Cloudy
5:16 PM 33.8°F 24.8°F 70% 30.39 in 10.0 miles NNW 4.6 mph - N/A   Mostly Cloudy
5:53 PM 34.0°F 21.9°F 61% 30.41 in 10.0 miles North 4.6 mph - N/A   Mostly Cloudy
6:53 PM 34.0°F 24.1°F 67% 30.42 in 10.0 miles NNW 3.5 mph - N/A   Mostly Cloudy
7:53 PM 33.1°F 23.0°F 66% 30.41 in 10.0 miles Calm Calm - N/A   Overcast
8:18 PM 33.8°F 23.0°F 65% 30.40 in 10.0 miles Calm Calm - N/A   Overcast
8:53 PM 32.0°F 24.1°F 73% 30.43 in 10.0 miles Calm Calm - N/A   Mostly Cloudy
9:53 PM 30.9°F 23.0°F 72% 30.43 in 10.0 miles Calm Calm - N/A   Clear
10:53 PM 28.9°F 21.9°F 75% 30.43 in 10.0 miles Calm Calm - N/A   Clear
11:53 PM 30.0°F 23.0°F 75% 30.45 in 10.0 miles Calm Calm - N/A   Scattered Clouds
Moon Phase
Jan. 12 Jan. 18 Jan. 26 Feb. 03 Feb. 10
Sunrise:07:54 AM (PST) Moon Rise:08:09 AM (PST)1/12
Sunset:04:43 PM (PST) Moon Set:06:28 PM (PST)1/12

Copyright © 2014 The Weather Underground, Inc.